GW2935 Weather Reports


time (UTC)temp
F
wind
direction
speed
knots
gust
knots
rain 1hr
in
rain 24hr
in
rain mn
in
humidity
%
barometer
mb
20260510043048 75 0 0.0 0.9 0.00 0.02 0.02 90 1011.7
20260510041549 76 0 0.0 4.3 0.00 0.02 0.02 89 1011.8
20260510040056 76 0 0.0 1.7 0.00 0.02 0.02 89 1011.8
20260510034547 76 0 0.0 2.6 0.00 0.02 0.02 89 1011.4
20260510033052 76 58 0.0 5.2 0.00 0.02 0.02 89 1011.9
20260510031547 77 96 0.9 3.5 0.00 0.02 0.02 89 1011.8
20260510024550 79 83 2.6 9.6 0.00 0.02 0.02 84 1011.5
20260510023052 79 99 0.9 4.3 0.00 0.02 0.02 74 1010.7
20260510021544 79 0 0.0 0.9 0.00 0.02 0.02 77 1010.4
20260510020046 78 97 0.0 4.3 0.00 0.02 0.02 79 1010.0
20260510014550 78 121 0.0 0.0 0.00 0.02 0.02 80 1009.5
20260510013046 78 0 0.0 0.0 0.00 0.02 0.02 79 1009.3
20260510011549 78 0 0.0 0.9 0.00 0.02 0.02 79 1009.0
20260510010047 78 0 0.0 0.0 0.01 0.02 0.02 74 1008.9
20260510004549 79 0 0.0 0.9 0.01 0.02 0.02 75 1008.7
20260510003044 79 0 0.0 2.6 0.01 0.02 0.02 79 1008.7
20260510001548 81 0 0.0 2.6 0.02 0.02 0.02 74 1008.6
20260510000050 81 0 0.9 4.3 0.01 0.01 0.01 68 1008.5
20260509234550 82 136 0.0 1.7 0.01 0.01 0.01 72 1008.2
20260509233053 84 108 0.0 0.0 0.01 0.01 0.01 75 1008.0
20260509231548 86 0 0.0 0.0 0.00 0.00 0.00 70 1008.0
20260509230058 89 0 0.0 0.0 0.00 0.00 0.00 62 1007.9
20260509224545 90 0 0.0 0.9 0.00 0.00 0.00 58 1007.8
20260509223043 91 237 0.0 1.7 0.00 0.00 0.00 56 1007.7
20260509221546 91 68 0.0 1.7 0.00 0.00 0.00 58 1007.6
20260509220046 89 0 0.9 2.6 0.00 0.00 0.00 62 1007.6
20260509214544 90 110 0.0 1.7 0.00 0.00 0.00 60 1007.6
20260509213052 91 104 0.0 3.5 0.00 0.00 0.00 62 1007.6
20260509211552 92 0 0.0 1.7 0.00 0.00 0.00 59 1007.7
20260509210101 92 289 0.0 2.6 0.00 0.00 0.00 60 1007.9
20260509204545 92 262 0.9 2.6 0.00 0.00 0.00 59 1008.2
20260509203048 91 281 0.9 3.5 0.00 0.00 0.00 60 1008.2
20260509201548 92 52 0.0 2.6 0.00 0.00 0.00 61 1008.5
20260509200044 91 272 0.9 2.6 0.00 0.00 0.00 61 1008.5
20260509194559 91 105 0.0 2.6 0.00 0.01 0.00 62 1008.7
20260509193049 90 32 0.0 2.6 0.00 0.01 0.00 64 1008.8
20260509191546 89 267 0.0 1.7 0.00 0.01 0.00 63 1008.9
20260509190049 88 0 0.0 2.6 0.00 0.01 0.00 64 1009.0
20260509184552 88 237 0.0 2.6 0.00 0.02 0.00 67 1009.1
20260509183051 87 70 0.0 2.6 0.00 0.02 0.00 68 1009.2
20260509181557 88 57 0.0 3.5 0.00 0.02 0.00 65 1009.4
20260509180049 88 32 0.9 4.3 0.00 0.02 0.00 69 1009.9
20260509174549 87 264 0.9 3.5 0.00 0.06 0.00 74 1010.1
20260509173048 86 47 0.9 6.1 0.00 0.06 0.00 76 1010.2
20260509171549 84 281 0.0 3.5 0.00 0.06 0.00 80 1010.5
20260509170051 82 53 0.0 1.7 0.00 0.06 0.00 82 1010.8
20260509164546 81 102 0.0 0.9 0.00 0.08 0.00 82 1010.8
20260509163047 82 0 0.0 0.9 0.00 0.08 0.00 82 1010.7
20260509161543 81 0 0.0 0.0 0.00 0.08 0.00 83 1010.8
20260509160046 81 0 0.0 0.0 0.00 0.08 0.00 84 1010.8
20260509154546 81 0 0.0 0.9 0.00 0.09 0.00 86 1010.6
20260509153059 80 0 0.0 0.0 0.00 0.09 0.00 88 1010.4
20260509151549 79 0 0.0 0.0 0.00 0.09 0.00 89 1010.7
20260509150048 78 0 0.0 0.0 0.00 0.09 0.00 91 1010.6
20260509144545 77 103 0.0 0.9 0.00 0.09 0.00 92 1010.2
20260509143050 77 0 0.0 0.0 0.00 0.09 0.00 93 1010.2
20260509141545 76 0 0.0 0.9 0.00 0.09 0.00 94 1010.0
20260509140051 76 0 0.0 2.6 0.00 0.09 0.00 95 1009.6
20260509134543 76 222 0.0 0.9 0.00 0.09 0.00 96 1010.1
20260509133046 76 0 0.0 0.0 0.00 0.09 0.00 97 1010.4
20260509131547 75 0 0.0 0.0 0.00 0.09 0.00 97 1011.0
20260509130045 75 0 0.0 0.0 0.00 0.09 0.00 97 1010.8
20260509124545 74 0 0.0 0.0 0.00 0.09 0.00 98 1010.7
20260509123044 73 0 0.0 0.0 0.00 0.09 0.00 97 1010.4
20260509121546 73 0 0.0 0.0 0.00 0.09 0.00 97 1010.4
20260509120058 73 0 0.0 0.0 0.00 0.09 0.00 97 1010.0
20260509114545 73 0 0.0 0.0 0.00 0.09 0.00 97 1010.2
20260509113044 73 0 0.0 0.0 0.00 0.09 0.00 97 1010.4
20260509111548 73 0 0.0 0.0 0.00 0.09 0.00 97 1010.4
20260509110053 73 0 0.0 0.0 0.00 0.09 0.00 97 1010.2
20260509104548 73 0 0.0 0.0 0.00 0.09 0.00 97 1009.7
20260509103051 73 0 0.0 0.0 0.00 0.09 0.00 97 1009.7
20260509101553 72 0 0.0 0.0 0.00 0.09 0.00 97 1009.5
20260509100051 73 0 0.0 0.0 0.00 0.09 0.00 97 1009.4
20260509094551 73 0 0.0 0.0 0.00 0.09 0.00 96 1009.3
20260509093048 73 0 0.0 0.0 0.00 0.09 0.00 96 1009.5
20260509091606 73 0 0.0 0.0 0.00 0.09 0.00 97 1009.8
20260509090046 73 0 0.0 0.0 0.00 0.09 0.00 96 1009.8
20260509084552 73 0 0.0 0.0 0.00 0.09 0.00 96 1009.5
20260509083051 73 0 0.0 0.0 0.00 0.09 0.00 96 1009.3
20260509081548 74 0 0.0 0.0 0.00 0.09 0.00 96 1009.6
20260509080103 73 0 0.0 0.9 0.00 0.09 0.00 96 1009.4
20260509074553 73 0 0.0 0.0 0.00 0.09 0.00 96 1009.3
20260509073114 74 0 0.0 0.0 0.00 0.09 0.00 96 1009.7
20260509071555 73 0 0.0 0.0 0.00 0.09 0.00 96 1010.1
20260509070048 73 0 0.0 0.0 0.00 0.09 0.00 95 1010.1
20260509064547 73 0 0.0 0.0 0.00 0.09 0.00 95 1010.0
20260509063049 73 0 0.0 0.0 0.00 0.09 0.00 95 1010.0
20260509061556 73 0 0.0 0.0 0.00 0.09 0.00 95 1010.1
20260509060057 73 0 0.0 0.0 0.00 0.09 0.00 95 1010.2
20260509054602 73 0 0.0 0.0 0.00 0.09 0.00 95 1010.3
20260509053051 73 0 0.0 0.0 0.00 0.09 0.00 95 1010.4
20260509051553 73 0 0.0 0.0 0.00 0.09 0.00 95 1010.5
20260509050050 73 0 0.0 0.0 0.00 0.09 0.00 95 1010.4
20260509044542 73 0 0.0 0.0 0.00 0.09 0.09 95 1010.6